Regional Weather Roundup
Issued by NWS

Home | Current Version | Previous Version | Graphics & Text | Print | Product List | Glossary On
Versions: 1 2 3 4 5 6 7 8 9 10 11 12 13 14 15 16 17 18 19 20 21 22 23 24 25 26 27 28 29 30 31 32 33 34 35 36 37 38 39 40 41 42 43 44 45 46 47 48 49 50
000
ASUS45 KPSR 131210
RWRAZ

ARIZONA HOURLY REGIONAL WEATHER ROUNDUP
NATIONAL WEATHER SERVICE PHOENIX AZ
500 AM MST SAT FEB 13 2016

NOTE: FAIR INDICATES FEW OR NO CLOUDS BELOW 12,000 FEET WITH NO
SIGNIFICANT WEATHER AND/OR OBSTRUCTIONS TO VISIBILITY.

AZZ001>003-036-131300-
NORTHWEST ARIZONA

CITY           SKY/WX    TMP DP  RH WIND       PRES   REMARKS
BULLHEAD CITY  CLEAR     50  27  40 NE3       30.11R
KINGMAN        CLEAR     38  22  52 S3        30.16F
6HR MIN TEMP:  38; 6HR MAX TEMP:  50;

$$

AZZ004>008-015-016-018-131300-
NORTH CENTRAL ARIZONA

CITY           SKY/WX    TMP DP  RH WIND       PRES   REMARKS
GRAND CANYON   PTCLDY    24  20  84 CALM      30.30S
6HR MIN TEMP:  24; 6HR MAX TEMP:  29;

WILLIAMS       CLEAR     30  19  64 S12       30.35S WCI  21
PRESCOTT       CLEAR     33  22  63 SW6       30.24S WCI  28
6HR MIN TEMP:  33; 6HR MAX TEMP:  45;

FLAGSTAFF      CLEAR     23  17  78 CALM      30.31F
6HR MIN TEMP:  23; 6HR MAX TEMP:  28;

PAYSON         CLEAR     43  14  31 CALM      30.25S
PAGE           MOCLDY    37  30  75 CALM      30.26S
6HR MIN TEMP:  36; 6HR MAX TEMP:  42;

$$

AZZ009>014-017-131300-
NORTHEAST ARIZONA

CITY           SKY/WX    TMP DP  RH WIND       PRES   REMARKS
WINSLOW        PTCLDY    28  19  69 E6        30.28S WCI  22
6HR MIN TEMP:  24; 6HR MAX TEMP:  35;

SAINT JOHNS    CLEAR     24  13  62 W3        30.28S
6HR MIN TEMP:  22; 6HR MAX TEMP:  42;

WINDOW ROCK    CLEAR     25   0  33 CALM      30.33S
6HR MIN TEMP:  25; 6HR MAX TEMP:  30;

SHOW LOW       PTCLDY    32  16  51 S8        30.31S WCI  25
$$

AZZ023-131300-
GREATER PHOENIX AREA

CITY           SKY/WX    TMP DP  RH WIND       PRES   REMARKS
PHOENIX        CLEAR     57  33  40 E6        30.05S
6HR MIN TEMP:  55; 6HR MAX TEMP:  67;

BUCKEYE        CLEAR     46  32  57 CALM      30.08S
LUKE AFB       CLEAR     49  33  53 N9        30.05S
6HR MIN TEMP:  49; 6HR MAX TEMP:  57;

DEER VALLEY    CLEAR     53  29  39 N3        30.06S
6HR MIN TEMP:  51; 6HR MAX TEMP:  63;

SCOTTSDALE     CLEAR     51  35  54 CALM      30.07F
6HR MIN TEMP:  50; 6HR MAX TEMP:  59;

MESA-GATEWAY   CLEAR     52  30  43 E7        30.08S
$$

AZZ027-028-131300-
SOUTHWEST MARICOPA COUNTY AND PINAL COUNTY

CITY           SKY/WX    TMP DP  RH WIND       PRES   REMARKS
CASA GRANDE    CLEAR     46  27  46 CALM      30.08S
6HR MIN TEMP:  46; 6HR MAX TEMP:  55;

GILA BEND      FAIR      49  26  39 E3        30.04F
6HR MIN TEMP:  49; 6HR MAX TEMP:  59;

$$

AZZ503-504-507>509-131300-
SOUTHEAST ARIZONA

CITY           SKY/WX    TMP DP  RH WIND       PRES   REMARKS
TUCSON         CLEAR     52  21  29 SE6       30.14S
6HR MIN TEMP:  50; 6HR MAX TEMP:  61;

DAVIS-MONTHAN  CLEAR     54  17  23 SE12      30.11F
6HR MIN TEMP:  50; 6HR MAX TEMP:  57;

NOGALES        PTCLDY    43  19  38 S6        30.16F
6HR MIN TEMP:  43; 6HR MAX TEMP:  54;

SIERRA VISTA   PTCLDY    45  20  37 S1        30.21F
6HR MIN TEMP:  45; 6HR MAX TEMP:  55;

DOUGLAS        MOCLDY    37  13  37 CALM      30.20S
6HR MIN TEMP:  33; 6HR MAX TEMP:  50;

SAFFORD        CLEAR     43  20  39 W3        30.18R
6HR MIN TEMP:  41; 6HR MAX TEMP:  56;

$$

AZZ020-021-025-026-031-131300-
SOUTHWEST ARIZONA

CITY           SKY/WX    TMP DP  RH WIND       PRES   REMARKS
YUMA           CLEAR     56  29  35 NE5       30.02F
6HR MIN TEMP:  55; 6HR MAX TEMP:  60;

$$

CAZ031-033-041-043-047-048-061-131300-
SOUTHERN CALIFORNIA

CITY           SKY/WX    TMP DP  RH WIND       PRES   REMARKS
DOWNTOWN L.A.  CLEAR     54  51  90 CALM      30.07S
6HR MIN TEMP:  54; 6HR MAX TEMP:  60;

L.A. AIRPORT   FOG       52  51  97 W7        30.08S VSB 1/4
6HR MIN TEMP:  52; 6HR MAX TEMP:  61;

SAN DIEGO      PTCLDY    55  49  79 CALM      30.08F
6HR MIN TEMP:  53; 6HR MAX TEMP:  63;

BURBANK        CLEAR     53  36  52 CALM      30.08S
6HR MIN TEMP:  53; 6HR MAX TEMP:  64;

ONTARIO        CLEAR     55  36  48 N5        30.08S
6HR MIN TEMP:  53; 6HR MAX TEMP:  66;

RIVERSIDE      CLEAR     55  33  43 NE6       30.09S
6HR MIN TEMP:  54; 6HR MAX TEMP:  63;

PALM SPRINGS   CLEAR     63  24  22 NW6       30.06S
6HR MIN TEMP:  60; 6HR MAX TEMP:  67;

EL CENTRO NAS  CLEAR     52  22  30 SW5       30.04S
6HR MIN TEMP:  50; 6HR MAX TEMP:  61;

IMPERIAL       CLEAR     48  27  44 W5        30.02S
6HR MIN TEMP:  48; 6HR MAX TEMP:  60;

BLYTHE         CLEAR     48  23  37 N3        30.06S
6HR MIN TEMP:  48; 6HR MAX TEMP:  59;

NEEDLES        CLEAR     51  25  36 W3        30.09S
6HR MIN TEMP:  50; 6HR MAX TEMP:  63;

$$

NVZ020-UTZ003-131300-
SOUTHERN NEVADA-UTAH

CITY           SKY/WX    TMP DP  RH WIND       PRES   REMARKS
LAS VEGAS      PTCLDY    49  23  36 S6        30.11S
6HR MIN TEMP:  49; 6HR MAX TEMP:  57;

SALT LAKE CITY CLOUDY    30  27  88 N5        30.27S FOG     WCI  25
6HR MIN TEMP:  28; 6HR MAX TEMP:  30;

$$

NMZ009-TXZ055-131300-
NEW MEXICO-WEST TEXAS

CITY           SKY/WX    TMP DP  RH WIND       PRES   REMARKS
ALBUQUERQUE    CLOUDY    32  18  56 CALM      30.30S
6HR MIN TEMP:  32; 6HR MAX TEMP:  50;

EL PASO        MOCLDY    38  15  39 NE6       30.25R WCI  33
6HR MIN TEMP:  37; 6HR MAX TEMP:  51;

$$


........................KEY........................
SKY/WX - SKY CONDITION/WEATHER
TMP    - TEMPERATURE IN FAHRENHEIT
DP     - DEW POINT IN FAHRENHEIT
RH     - RELATIVE HUMIDITY IN PERCENT
WIND   - DIRECTION AND SPEED IN MILES PER HOUR (MPH)
VRB    - VARIABLE WIND DIRECTION
PRES   - MEAN SEA LEVEL PRESSURE IN INCHES OF MERCURY
         F - FALLING PRESSURE   R - RISING PRESSURE
         S - STEADY PRESSURE
VSB    - VISIBILITY IN MILES
HX     - HEAT INDEX IN FAHRENHEIT
WCI    - WIND CHILL INDEX IN FAHRENHEIT
TC     - TEMPERATURE IN CELSIUS WHICH IS ALSO KNOWN AS
         TEMPERATURE IN CENTIGRADE
AFB    - AIR FORCE BASE
         LUKE AFB IS LUKE AIR FORCE BASE
         DAVIS-MONTHAN IS DAVIS-MONTHAN AIR FORCE BASE
NAS    - NAVAL AIR STATION
         EL CENTRO NAS IS EL CENTRO NAVAL AIR STATION
N/A    - NOT AVAILABLE




USA.gov is the U.S. government's official web portal to all federal, state and local government web resources and services.